Regional Weather Roundup
Issued by NWS

Home | Current Version | Previous Version | Text Only | Print | Product List | Glossary On
Versions: 1 2 3 4 5 6 7 8 9 10 11 12 13 14 15 16 17 18 19 20 21 22 23 24 25 26 27 28 29 30 31 32 33 34 35 36 37 38 39 40 41 42 43 44 45 46 47 48 49 50
000
ASMX46 KSGX 231211
RWRMX
MEXICAN WEATHER ROUNDUP
NATIONAL WEATHER SERVICE SAN DIEGO CA
500 AM PDT SAT SEP 23 2017

BAJA CALIFORNIA

CITY           SKY/WX    TMP DP  RH WIND       PRES   REMARKS
LA PAZ         PTCLDY    70  63  78 S10       29.77
S.J. DEL CABO  CLEAR     77  68  73 CALM      29.70
TIJUANA        PTCLDY    57  52  82 CALM      29.85

NORTHWESTERN MEXICO

CITY           SKY/WX    TMP DP  RH WIND       PRES   REMARKS
HERMOSILLO     CLEAR     72  61  68 CALM      29.71

NORTHEASTERN MEXICO

CITY           SKY/WX    TMP DP  RH WIND       PRES   REMARKS
MONCLOVA         N/A    N/A N/A N/A MISG        N/A
MONTERREY      CLOUDY    75  70  83 E14       29.85S
REYNOSA        PTCLDY    75  70  83 SE3       29.84
SALTILLO       PTCLDY    63  59  88 CALM      30.07R FOG
VICTORIA       CLEAR     73  73 100 MISG      29.85

WESTERN MEXICO

CITY           SKY/WX    TMP DP  RH WIND       PRES   REMARKS
AGUASCALIENTES MOCLDY    61  59  94 CALM      30.13
COLIMA         MOCLDY    70  70 100 CALM      29.86
GUADALAJARA    CLOUDY    64  63  94 NE5       30.01S
MAZATLAN       MOCLDY    77  75  94 CALM      29.71S
PTO. VALLARTA  CLOUDY    77  77 100 CALM      29.69F
TEPIC            N/A    N/A N/A N/A MISG        N/A
URUAPAN        CLOUDY    63  63 100 CALM      30.03  FOG
ZACATECAS      MOCLDY    55  48  76 CALM      30.15

CENTRAL MEXICO

CITY           SKY/WX    TMP DP  RH WIND       PRES   REMARKS
CUERNAVACA       N/A    N/A N/A N/A MISG        N/A
LEON           MOCLDY    61  61 100 CALM      30.16S
MEXICO CITY    MOCLDY    61  50  67 CALM      30.20R
MORELIA        MOCLDY    59  59 100 CALM      30.09
POZA RICA      PTCLDY    77  75  94 N5        29.86
QUERETARO      MOCLDY    61  59  94 CALM      30.17R
S. LUIS POTOSI CLOUDY    63  54  72 E6        30.12
TAMPICO        MOCLDY    77  75  94 CALM      29.82R
TOLUCA         MOCLDY    52  48  87 E6        30.25
VERACRUZ       TSTM      73  73 100 W3        29.82S VSB 3/4

SOUTHERN MEXICO

CITY           SKY/WX    TMP DP  RH WIND       PRES   REMARKS
ACAPULCO       CLOUDY    77  75  94 N2        29.76F
B. DE HUATULCO PTCLDY   N/A N/A N/A CALM      29.80
MINATITLAN     PTCLDY    75  73  94 CALM      29.78
OAXACA         MOCLDY    64  63  94 CALM      30.12
PTO. ESCONDIDO PTCLDY    75  72  88 NE8       29.86
TAPACHULA      MOCLDY    75  73  94 CALM      29.77F
TUX. GUTIERREZ PTCLDY    73  70  88 CALM      29.86S
VILLAHERMOSA   PTCLDY    77  77 100 E5        29.79R
ZIHUATANEJO    MOCLDY    75  72  88 CALM      29.76

YUCATAN PENINSULA

CITY           SKY/WX    TMP DP  RH WIND       PRES   REMARKS
CAMPECHE       MOCLDY    77  75  94 CALM      29.78R
CANCUN         PTCLDY    75  75 100 NW3       29.83R
CHETUMAL       CLEAR     75  75 100 CALM      29.81
C. DEL CARMEN  PTCLDY   N/A N/A N/A E12       29.79
COZUMEL        PTCLDY    77  75  94 E3        29.80S
MERIDA         MOCLDY    77  73  88 E5        29.83R

$$





USA.gov is the U.S. government's official web portal to all federal, state and local government web resources and services.